This is the latest recevied weather packets stored in our database for station/object UR7D-12. If no packets are shown the sender has not sent any weather packets the latest 10 day(s).
| Time | Temp. | Humidity | Pressure | Rain* | Wind** | Luminosity | Snow |
|---|---|---|---|---|---|---|---|
| 1777986090 | 25.56° C | 30% | 987.5 hPa | 0 mm | - | - | - |
| 1777984889 | 25.56° C | 33% | 987.7 hPa | 0 mm | - | - | - |
| 1777983088 | 24.44° C | 32% | 988.2 hPa | 0 mm | - | - | - |
| 1777982487 | 24.44° C | 33% | 988.3 hPa | 0 mm | - | - | - |
| 1777981887 | 25° C | 34% | 988.3 hPa | 0 mm | - | - | - |
| 1777981586 | 24.44° C | 32% | 988.5 hPa | 0 mm | - | - | - |
| 1777980985 | 23.89° C | 32% | 988.6 hPa | 0 mm | - | - | - |
| 1777980685 | 23.89° C | 31% | 988.8 hPa | 0 mm | - | - | - |
| 1777980085 | 23.89° C | 32% | 988.7 hPa | 0 mm | - | - | - |
| 1777979784 | 23.89° C | 33% | 988.6 hPa | 0 mm | - | - | - |
| 1777979484 | 23.89° C | 31% | 988.6 hPa | 0 mm | - | - | - |
| 1777979184 | 24.44° C | 31% | 988.8 hPa | 0 mm | - | - | - |
| 1777978883 | 24.44° C | 34% | 988.7 hPa | 0 mm | - | - | - |
| 1777978583 | 24.44° C | 33% | 988.8 hPa | 0 mm | - | - | - |
| 1777978283 | 23.89° C | 35% | 988.8 hPa | 0 mm | - | - | - |
| 1777977684 | 23.89° C | 35% | 989 hPa | 0 mm | - | - | - |
| 1777977382 | 23.33° C | 35% | 989.1 hPa | 0 mm | - | - | - |
| 1777977082 | 23.33° C | 33% | 989.1 hPa | 0 mm | - | - | - |
| 1777976482 | 22.78° C | 33% | 989.1 hPa | 0 mm | - | - | - |
| 1777975881 | 22.78° C | 34% | 989.2 hPa | 0 mm | - | - | - |
| 1777974980 | 22.78° C | 35% | 989.4 hPa | 0 mm | - | - | - |
| 1777974680 | 22.78° C | 35% | 989.5 hPa | 0 mm | - | - | - |
| 1777974079 | 22.78° C | 34% | 989.4 hPa | 0 mm | - | - | - |
| 1777973779 | 22.78° C | 36% | 989.5 hPa | 0 mm | - | - | - |
| 1777973479 | 22.78° C | 36% | 989.5 hPa | 0 mm | - | - | - |
* Rain latest hour (hover to see other rain measurements)
** Current wind speed in m/s (hover to see current wind gust speed)